Regional Weather Roundup
Issued by NWS

Home | Current Version | Previous Version | Graphics & Text | Print | Product List | Glossary Off
Versions: 1 2 3 4 5 6 7 8 9 10 11 12 13 14 15 16 17 18 19 20 21 22 23 24 25 26 27 28 29 30 31 32 33 34 35 36 37 38 39 40 41 42 43 44 45 46 47 48 49 50

000
ASUS43 KLSX 011759
RWRMO

WEATHER SUMMARY FOR MISSOURI
NATIONAL WEATHER SERVICE SPRINGFIELD MO
100 PM CDT FRI AUG 01 2014

NOTE: "FAIR" INDICATES FEW OR NO CLOUDS BELOW 12,000 FEET WITH NO
       SIGNIFICANT WEATHER AND/OR OBSTRUCTIONS TO VISIBILITY.
       CURRENT SKY AND/OR WEATHER CONDITIONS ARE NOT AVAILABLE FOR
       CHILLICOTHE AND FARMINGTON.

MOZ001>031-035>038-043-044-053-054-011900-
...NORTHERN AND WESTERN MISSOURI...

CITY           SKY/WX    TMP DP  RH WIND       PRES   REMARKS
KANSAS CTY INT MOSUNNY   82  62  50 SE9       30.08F
6HR MIN TEMP:  66; 6HR MAX TEMP:  82; 6HR PCP: TRACE;

KANSAS C DTWN  SUNNY     83  61  47 E9        30.07F
6HR MIN TEMP:  70; 6HR MAX TEMP:  83; 6HR PCP: TRACE;

LEE`S SUMMIT   SUNNY     79  60  52 MISG      30.09F
6HR MIN TEMP:  67; 6HR MAX TEMP:  80;

ST JOSEPH      CLOUDY    80  62  54 SE6       30.08S
6HR MIN TEMP:  65; 6HR MAX TEMP:  81; 6HR PCP: TRACE;

KIRKSVILLE     MOSUNNY   83  61  47 N6        30.11S
6HR MIN TEMP:  65; 6HR MAX TEMP:  83;


$$
MOZ066>068-077>081-088>096-101>105-011900-
...SOUTHWEST MISSOURI...

CITY           SKY/WX    TMP DP  RH WIND       PRES   REMARKS
SPRINGFIELD    MOSUNNY   75  64  68 CALM      30.11S
6HR MIN TEMP:  63; 6HR MAX TEMP:  77;

JOPLIN         PTSUNNY   78  65  63 VRB6      30.10F
6HR MIN TEMP:  65; 6HR MAX TEMP:  79;


$$
MOZ032>034-039>042-045>050-055>058-069>072-011900-
...CENTRAL MISSOURI...

CITY           SKY/WX    TMP DP  RH WIND       PRES   REMARKS
COLUMBIA       LGT RAIN  71  66  84 N8        30.10F
6HR MIN TEMP:  61; 6HR MAX TEMP:  78; 6HR PCP: TRACE;

JEFFERSON CITY CLOUDY    78  63  59 N6        30.08F
6HR MIN TEMP:  63; 6HR MAX TEMP:  80;

ROLLA          MOSUNNY   84  54  35 VRB3      30.07F
6HR MIN TEMP:  63; 6HR MAX TEMP:  85;

SEDALIA        PTSUNNY   75  63  66 NE6       30.10F
6HR MIN TEMP:  62; 6HR MAX TEMP:  75; 6HR PCP: TRACE;

OSAGE BEACH      N/A     81  63  54 N3        30.08S

$$
MOZ051-052-059>065-011900-
...EAST CENTRAL MISSOURI...

CITY           SKY/WX    TMP DP  RH WIND       PRES   REMARKS
ST LOUIS INTL  PTSUNNY   86  60  41 SE6       30.07F
6HR MIN TEMP:  68; 6HR MAX TEMP:  87;

SPIRIT OF STL  MOSUNNY   85  61  44 SE6       30.05F
6HR MIN TEMP:  61; 6HR MAX TEMP:  85;

ST CHARLES     CLOUDY    81  65  58 NE8       30.06F
6HR MIN TEMP:  62; 6HR MAX TEMP:  83;


$$
MOZ072>076-082>087-097>100-106>115-011900-
...SOUTH CENTRAL AND SOUTHEAST MISSOURI...

CITY           SKY/WX    TMP DP  RH WIND       PRES   REMARKS
CAPE GIRARDEAU SUNNY     83  62  49 MISG      30.08F
6HR MIN TEMP:  64; 6HR MAX TEMP:  83;

FARMINGTON     SUNNY     81  63  54 N5        30.11F
6HR MIN TEMP:  64; 6HR MAX TEMP:  81;

POPLAR BLUFF   PTSUNNY   80  64  58 CALM      30.08F
6HR MIN TEMP:  64; 6HR MAX TEMP:  80;

WEST PLAINS    CLOUDY    75  63  66 VRB3      30.12F
6HR MIN TEMP:  60; 6HR MAX TEMP:  77;


$$



USA.gov is the U.S. government's official web portal to all federal, state and local government web resources and services.